59P/Kearns-Kwee (2018)

Japanese version
Home page
Updated on July 8, 2017

---------------------------------------------------------------------

* Profile

* Orbital Elements

Epoch 2018 Aug. 30.0 TT = JDT 2458360.5
T 2018 Sept. 16.76460 TT                                Kobayashi
q   2.3587628            (2000.0)            P               Q
n   0.10342060     Peri.  127.70131     +0.15685070     -0.98042484
a   4.4950171      Node   312.82804     +0.84736139     +0.19549710
e   0.4752494      Incl.    9.33935     +0.50732291     -0.02340989
P   9.53
From 989 observations 1989 Sept. 10-2010 Mar. 10, mean residual 0".8.
     Nongravitational parameters A1 = +1.53, A2 = -0.1300.

* Finding Charts

* Magnitudes Graph

        m1 = 7.0 + 5 log d + 20 log r

---------------------------------------------------------------------

The orbital elements are published on M.P.E.C. 2015-M77.
The charts are made with StellaNavigator Ver.10 (AstroArts).
The magnitudes graphs are made with Comet for Windows.

---------------------------------------------------------------------

Copyright(C) Seiichi Yoshida (comet@aerith.net). All rights reserved.